Flag for U.S.A. Weather past 2 weeks in Corpus Christi, Texas, U.S.A.

Now
48 °F

Passing clouds.


Feels Like: 45 °F
Forecast: 48 / 75 °F
Wind: 6 mph from West

Location: Corpus Christi International Airport

Current Time: Jan 27, 2015 at 8:51:12 AM

Latest Report: Jan 27, 2015 at 7:51 AM


Visibility: 10 mi

Pressure: 30.21 "Hg

Humidity: 74%

Dew point: 40 °F

Location of Corpus ChristiLocation

Historic Weather in Corpus Christi — Graph

°F

Corpus Christi temperature yesterday

Maximum temperature yesterday: 72 °F (at 12:51 PM)
Minimum temperature yesterday: 41 °F (at 6:51 AM)
Average temperature yesterday: 56 °F

Past Weeks' High & Low Weather Summary

 TemperatureHumidityPressure
High78 °F (Jan 20, 1:51 PM)100% (Jan 20, 3:51 AM)30.45 "Hg (Jan 20, 3:51 AM)
Low35 °F (Jan 24, 6:51 AM)29% (Jan 18, 2:51 PM)29.88 "Hg (Jan 22, 6:51 AM)
Average52 °F79%30.18 "Hg
* Reported Jan 12 7:51 AM — Jan 27 7:51 AM, Corpus Christi, Weather by CustomWeather, © 2014

Note: Actual official high and low records may vary slightly from our data, if they occured in-between our weather recording intervals... More about our weather records

Advertising

Corpus Christi weather history for previous 24 hours

 ConditionsComfort  
Time TempWeatherWind HumidityBarometerVisibility
7:51 AM
Jan 27
48 °FPassing clouds.6 mph74%30.21 "Hg10 mi
6:51 AM47 °FPassing clouds.6 mph77%30.19 "Hg10 mi
5:51 AM47 °FPassing clouds.7 mph77%30.18 "Hg10 mi
4:51 AM46 °FPassing clouds.6 mph83%30.17 "Hg10 mi
3:51 AM47 °FPassing clouds.6 mph83%30.18 "Hg10 mi
2:51 AM49 °FPassing clouds.9 mph77%30.18 "Hg10 mi
1:51 AM47 °FPassing clouds.7 mph83%30.19 "Hg10 mi
12:51 AM49 °FPassing clouds.3 mph80%30.21 "Hg10 mi
11:51 PM
Jan 26
52 °FPartly cloudy.3 mph72%30.21 "Hg10 mi
10:51 PM51 °FPartly cloudy.7 mph71%30.21 "Hg10 mi
9:51 PM53 °FPassing clouds.5 mph69%30.22 "Hg10 mi
8:51 PM54 °FPartly cloudy.12 mph62%30.22 "Hg10 mi
7:51 PM56 °FMostly cloudy.8 mph67%30.21 "Hg10 mi
6:51 PM57 °FMostly cloudy.8 mph69%30.20 "Hg10 mi
5:51 PM62 °FPartly sunny.8 mph58%30.19 "Hg10 mi
4:51 PM68 °FPartly sunny.6 mph53%30.18 "Hg10 mi
3:51 PM71 °FBroken clouds.7 mph36%30.18 "Hg10 mi
2:51 PM72 °FPartly sunny.5 mph29%30.18 "Hg10 mi
1:51 PM72 °FBroken clouds.5 mph30%30.21 "Hg10 mi
12:51 PM72 °FPartly sunny.5 mph29%30.24 "Hg10 mi
11:51 AM70 °FPartly sunny.5 mph37%30.28 "Hg10 mi
10:51 AM66 °FPartly sunny.5 mph43%30.30 "Hg10 mi
9:51 AM59 °FPartly sunny.5 mph58%30.29 "Hg10 mi
8:51 AM53 °FPartly sunny.6 mph69%30.28 "Hg10 mi
Weather by CustomWeather, © 2014

See weather overviewHow to use our weather pages